Cloud_Cover
36 48 98 89 91 87 100 100 100 100 100 100 72 60 39 96 92 100 100 100 72 100 100 100 49 50 6 6 5 0 0 5 0 8 0 0 2 0 3 0 0 0 2 5 2 5 9 7 5
99 100 84 37 49 95 47 100 100 96 100 100 100 28 85 88 40 78 100 94 92 100 70 44 4 5 0 4 0 0 0 0 0 0 0 5 0 0 0 0 8 0 0 2 0 2 5 5 5
98 84 100 74 50 73 72 58 100 63 18 91 16 40 69 94 65 83 78 73 96 78 100 32 0 0 0 0 0 0 0 0 0 5 5 1 0 0 0 0 0 0 0 0 0 5 5 5 5
82 80 43 99 98 7 64 4 5 40 28 81 61 54 36 97 44 34 68 95 100 100 100 4 0 3 0 0 0 0 0 5 2 3 0 0 1 1 0 0 0 0 0 0 2 5 5 58 13
34 15 99 96 40 52 12 5 35 50 27 32 59 100 80 89 82 80 83 98 86 100 81 1 0 0 0 0 0 1 4 0 3 0 2 1 1 5 0 0 7 0 0 0 0 0 4 4 6
94 5 88 100 21 70 67 13 46 7 3 9 10 59 100 87 49 88 100 100 100 97 37 0 0 0 0 0 1 0 0 0 0 0 9 0 0 0 0 0 0 0 0 0 0 0 0 0 0
11 4 36 61 6 5 7 5 45 5 0 0 0 37 69 98 97 92 100 100 100 62 14 0 0 0 0 2 0 0 0 3 2 5 5 0 0 0 0 0 0 0 0 0 0 0 0 0 0
6 3 4 5 94 3 5 5 5 4 0 0 5 4 79 100 67 78 100 100 100 54 3 0 0 0 0 0 0 0 0 0 5 3 0 0 0 0 0 0 0 0 0 0 0 0 0 0 0
14 5 58 66 98 58 5 1 0 0 0 0 2 1 5 53 81 86 100 100 100 38 1 0 0 0 0 0 0 0 0 2 0 0 0 2 65 83 85 4 0 0 0 0 0 0 0 0 0
6 16 71 52 31 35 5 1 0 0 2 3 4 5 2 16 43 70 84 88 72 31 0 0 0 0 0 0 0 0 0 0 0 41 12 96 24 19 24 2 0 0 0 0 0 0 2 100 89
5 70 3 0 72 60 17 5 5 4 5 4 4 4 91 14 33 45 49 34 13 3 0 0 0 0 0 0 0 0 0 0 0 14 14 44 33 24 81 92 81 87 5 100 76 91 75 76 0
4 5 2 0 0 0 95 59 59 5 0 5 5 2 0 0 7 2 10 1 10 3 0 0 0 0 0 0 0 0 0 0 0 0 0 13 34 11 19 92 53 23 82 1 14 3 2 100 26
5 5 5 0 0 0 0 4 3 4 1 0 0 0 0 0 0 5 1 0 0 0 0 0 3 2 0 0 0 0 0 0 0 0 0 7 34 33 51 19 80 35 2 1 42 9 12 44 76
5 5 4 0 3 3 0 0 0 3 0 3 0 0 0 0 0 0 0 0 0 0 0 0 0 0 0 0 0 0 0 0 0 0 0 0 4 5 30 38 82 53 100 93 0 4 69 52 61
5 5 5 4 5 5 0 3 5 4 3 5 5 0 0 0 0 0 0 0 0 0 0 0 0 0 0 0 0 0 0 0 0 0 0 0 0 1 0 1 45 34 0 0 8 0 10 11 41
4 4 1 84 86 6 0 49 5 7 2 0 2 0 0 0 0 0 0 0 0 0 0 0 0 0 0 0 0 0 0 0 0 0 0 0 0 0 0 76 56 90 1 0 10 6 96 34 12
5 0 1 5 37 3 0 68 5 5 3 12 10 0 0 0 0 0 0 0 0 0 0 0 0 0 0 0 0 0 0 0 0 0 0 0 0 0 0 28 49 0 51 15 19 35 2 0 2
5 0 1 2 0 0 0 4 5 9 4 5 12 4 0 0 0 0 0 0 0 0 0 0 0 0 0 0 1 0 0 0 0 0 0 0 0 0 0 17 2 1 55 66 96 2 0 0 0
0 1 0 0 2 0 0 4 5 5 0 0 0 0 0 0 0 0 0 0 0 0 0 0 0 0 0 0 0 0 0 0 0 0 0 0 0 0 0 6 4 0 7 12 13 1 0 2 0
0 0 0 2 0 0 0 4 5 5 5 0 56 3 14 0 0 0 0 0 0 0 0 0 0 0 3 0 0 0 0 0 0 0 0 0 0 0 0 1 26 12 16 1 5 0 0 0 0
0 0 0 0 0 0 0 0 5 1 5 4 5 6 19 5 0 0 0 0 0 0 0 0 0 0 2 0 0 0 0 0 0 0 0 0 0 0 0 3 14 12 0 42 11 6 0 2 0
0 0 0 0 0 0 0 0 5 5 3 5 3 0 5 1 0 0 0 0 0 0 0 0 0 0 6 0 0 0 0 0 0 0 0 0 0 0 0 0 0 3 17 22 3 6 0 0 0
0 0 0 0 0 0 0 0 0 5 0 2 5 5 0 0 0 0 0 0 0 0 0 0 0 0 0 0 0 0 0 0 0 0 0 0 0 0 0 0 0 0 0 1 0 9 0 0 0
0 0 0 0 0 0 0 0 0 0 0 0 5 5 1 0 0 0 0 0 0 0 0 0 0 0 0 0 0 0 0 0 0 0 0 0 0 0 0 0 0 0 0 1 8 17 6 0 0
0 0 0 0 0 2 3 1 0 0 0 2 4 0 0 0 0 0 0 0 0 0 0 0 0 0 0 0 0 0 0 0 0 0 0 0 0 0 0 0 0 0 0 0 8 23 0 0 0
0 0 0 0 0 0 0 1 0 0 0 5 1 0 0 0 0 0 0 0 0 0 0 0 0 0 0 0 0 0 0 0 0 0 0 0 0 0 0 0 0 0 0 0 8 2 0 0 0
0 0 0 0 0 0 0 0 0 0 0 5 0 0 0 0 0 0 0 0 0 0 0 0 0 0 0 0 0 0 0 0 0 0 0 0 0 0 0 0 0 0 0 0 4 0 0 0 0
0 0 0 0 0 0 0 0 0 0 0 1 0 0 0 0 0 0 0 0 0 0 0 0 0 5 5 0 0 0 0 0 0 0 0 0 0 0 0 0 0 0 0 0 0 0 0 0 0
0 0 0 0 0 0 0 0 0 0 0 0 0 0 0 0 0 0 0 0 0 1 0 0 0 1 1 0 0 0 0 0 0 0 0 0 0 0 0 0 0 0 0 0 0 0 0 0 0
0 0 0 0 0 0 0 0 0 0 0 0 0 0 2 0 2 5 0 2 5 5 0 0 4 0 0 0 0 0 0 0 0 0 0 0 0 0 0 0 0 0 0 0 3 0 0 0 0